This demonstration page uses our WeatherBlox Daily Observations layout. Learn more.

Left ArrowRight Arrow

Hourly Observations for August 15, 2022

Temp ( °F °C ) Dew Point ( °F °C ) Humidity (%) Winds ( mph kmh ) Pressure ( in mb ) Visibility ( mi km ) Precip ( " mm )
12:15 am 00:15 Clear with Nearby Thunderstorms 71 21.6 64 17.7 78 78 ESE 8 13 29.86 1011 10 16 0.00 0.00
12:35 am 00:35 Clear 70 21.1 64 17.7 81 81 ESE 7 11 29.87 1011 10 16 0.00 0.00
12:55 am 00:55 Clear 69 20.6 64 17.8 84 84 ESE 7 11 29.87 1012 10 16 0.00 0.00
1:15 am 01:15 Clear 69 20.7 64 18 85 85 ESE 8 13 29.86 1011 10 16 0.00 0.00
1:35 am 01:35 Clear 70 21 64 18 83 83 ESE 9 15 29.86 1011 10 16 0.00 0.00
1:55 am 01:55 Clear 70 21 64 17.8 82 82 ESE 9 15 29.87 1011 10 16 0.00 0.00
2:15 am 02:15 Clear 69 20.7 64 17.6 82 82 ESE 10 17 29.87 1012 10 16 0.00 0.00
2:35 am 02:35 Clear 69 20.5 64 17.5 83 83 ESE 8 13 29.86 1011 10 16 0.00 0.00
2:55 am 02:55 Clear 68 19.8 63 17.4 86 86 ESE 8 13 29.87 1011 10 16 0.00 0.00
3:15 am 03:15 Clear 67 19.4 63 17.2 87 87 ESE 5 7 29.88 1012 10 16 0.00 0.00
3:35 am 03:35 Clear 66 19 63 17.1 89 89 SE 7 11 29.88 1012 10 16 0.00 0.00
3:55 am 03:55 Clear 66 19 63 17 88 88 ESE 8 13 29.87 1011 10 16 0.00 0.00
4:15 am 04:15 Clear 65 18.6 62 16.6 88 88 ESE 9 15 29.86 1011 10 16 0.00 0.00
4:35 am 04:35 Clear 65 18.1 62 16.5 90 90 ESE 8 13 29.86 1011 10 16 0.00 0.00
4:55 am 04:55 Clear 64 18 61 16.3 90 90 Calm 29.88 1012 10 16 0.00 0.00
5:15 am 05:15 Clear 64 17.6 61 16.2 92 92 NNW 9 15 29.89 1012 10 16 0.00 0.00
5:35 am 05:35 Clear 64 17.7 62 16.5 93 93 NNE 7 11 29.89 1012 10 16 0.00 0.00
5:55 am 05:55 Partly Cloudy 64 17.7 62 16.5 93 93 N 7 11 29.90 1012 10 16 0.00 0.00
6:15 am 06:15 Partly Cloudy 64 18 62 16.7 92 92 N 8 13 29.90 1013 10 16 0.00 0.00
6:35 am 06:35 Mostly Cloudy 64 18 63 17.1 94 94 NE 9 15 29.89 1012 10 16 0.00 0.00
6:55 am 06:55 Partly Cloudy 65 18.4 63 17.2 93 93 NE 12 19 29.89 1012 10 16 0.00 0.00
7:15 am 07:15 Partly Cloudy 65 18.5 64 17.5 94 94 NE 10 17 29.89 1012 10 16 0.00 0.00
7:35 am 07:35 Sunny 65 18.6 64 17.6 94 94 ENE 10 17 29.89 1012 10 16 0.00 0.00
7:55 am 07:55 Sunny 66 19 64 17.7 92 92 ENE 9 15 29.88 1012 10 16 0.00 0.00
8:15 am 08:15 Partly Cloudy 66 19 64 17.9 93 93 NE 8 13 29.90 1012 10 16 0.00 0.00
8:35 am 08:35 Mostly Cloudy with Light Rain 66 19 65 18.1 95 95 NE 8 13 29.90 1012 10 16 0.00 0.00
8:55 am 08:55 Partly Cloudy 67 19.3 65 18.3 94 94 E 12 19 29.87 1012 10 16 0.00 0.00
9:15 am 09:15 Partly Cloudy 67 19.7 65 18.5 93 93 ENE 8 13 29.89 1012 10 16 0.00 0.00
9:35 am 09:35 Partly Cloudy 68 20.2 65 18.6 91 91 ESE 12 19 29.86 1011 10 16 0.00 0.00
9:55 am 09:55 Mostly Cloudy 68 20.2 66 18.7 91 91 NE 6 9 29.89 1012 10 16 0.00 0.00
10:15 am 10:15 Partly Cloudy 69 20.6 66 18.8 89 89 ENE 7 11 29.87 1012 10 16 0.00 0.00
10:35 am 10:35 Partly Cloudy 71 21.7 66 19.1 85 85 E 8 13 29.87 1012 10 16 0.00 0.00
10:55 am 10:55 Partly Cloudy 72 22.2 66 19.1 83 83 E 7 11 29.87 1012 10 16 0.00 0.00
11:15 am 11:15 Partly Cloudy 71 21.9 66 19.1 84 84 NNE 7 11 29.88 1012 10 16 0.00 0.00
11:35 am 11:35 Partly Cloudy 72 22 66 19.1 84 84 NE 5 7 29.88 1012 10 16 0.00 0.00
11:55 am 11:55 Partly Cloudy 72 22.3 67 19.2 83 83 NE 7 11 29.88 1012 10 16 0.00 0.00
12:15 pm 12:15 Partly Cloudy 72 22.3 67 19.3 83 83 NNE 6 9 29.89 1012 10 16 0.00 0.00
12:35 pm 12:35 Partly Cloudy 72 22 67 19.4 85 85 NNE 7 11 29.89 1012 10 16 0.00 0.00
12:55 pm 12:55 Partly Cloudy 72 22 67 19.3 85 85 NNE 6 9 29.89 1012 10 16 0.00 0.00
1:15 pm 13:15 Partly Cloudy 72 22.2 67 19.4 84 84 NNE 8 13 29.89 1012 10 16 0.00 0.00
1:35 pm 13:35 Partly Cloudy 72 22.2 67 19.5 85 85 NE 6 9 29.89 1012 10 16 0.00 0.00
1:55 pm 13:55 Sunny 72 22 67 19.6 86 86 NNE 7 11 29.88 1012 10 16 0.00 0.00
2:15 pm 14:15 Sunny 72 22 67 19.7 87 87 NNE 5 7 29.88 1012 10 16 0.00 0.00
2:30 pm 14:30 Partly Cloudy 73 22.8 68 20.1 85 85 N 8 13 29.89 1012 10 16 0.00 0.00
2:55 pm 14:55 Partly Cloudy 74 23.2 68 20.2 83 83 NNE 8 13 29.87 1012 10 16 0.00 0.00
3:15 pm 15:15 Partly Cloudy 75 23.8 69 20.3 81 81 NNE 9 15 29.87 1011 10 16 0.00 0.00
3:35 pm 15:35 Partly Cloudy 76 24.7 69 20.5 78 78 NNE 10 17 29.85 1011 10 16 0.00 0.00
3:55 pm 15:55 Partly Cloudy 77 24.8 69 20.5 77 77 N 9 15 29.85 1011 10 16 0.00 0.00
4:15 pm 16:15 Partly Cloudy 78 25.3 69 20.4 74 74 NNE 12 19 29.83 1010 10 16 0.00 0.00
4:35 pm 16:35 Sunny 77 25 68 20.2 75 75 N 15 24 29.83 1010 10 16 0.00 0.00
4:55 pm 16:55 Sunny 76 24.5 68 20.1 77 77 N 12 19 29.83 1010 10 16 0.00 0.00
5:15 pm 17:15 Sunny 77 25 68 20 74 74 NNE 14 22 29.83 1010 10 16 0.00 0.00
5:35 pm 17:35 Partly Cloudy 76 24.7 68 20 75 75 NNE 14 22 29.83 1010 10 16 0.00 0.00
5:55 pm 17:55 Partly Cloudy 76 24.5 67 19.7 75 75 NNE 16 26 29.83 1010 10 16 0.00 0.00
6:15 pm 18:15 Mostly Cloudy 75 24 67 19.6 76 76 NE 13 20 29.84 1011 10 16 0.00 0.00
6:35 pm 18:35 Cloudy 73 22.7 66 19 80 80 NE 12 19 29.85 1011 10 16 0.00 0.00
6:55 pm 18:55 Cloudy 73 22.6 67 19.2 81 81 NE 13 20 29.85 1011 10 16 0.00 0.00
7:15 pm 19:15 Cloudy 72 22 66 19 83 83 NE 12 19 29.87 1012 10 16 0.00 0.00
7:35 pm 19:35 Cloudy 71 21.6 66 19.1 86 86 ENE 14 22 29.87 1012 10 16 0.00 0.00
7:55 pm 19:55 Cloudy 70 21 66 18.9 88 88 NE 16 26 29.89 1012 10 16 0.00 0.00
8:15 pm 20:15 Mostly Cloudy 69 20.6 66 18.9 90 90 NE 13 20 29.89 1012 7 11 0.00 0.00
8:35 pm 20:35 Mostly Cloudy 69 20.5 66 19.1 92 92 ENE 13 20 29.90 1013 7 11 0.00 0.00
8:55 pm 20:55 Cloudy 68 20.1 66 19 93 93 ENE 17 28 29.91 1013 7 11 0.00 0.00
9:15 pm 21:15 Cloudy 67 19.5 65 18.2 92 92 ENE 15 24 29.92 1013 7 11 0.00 0.00
9:35 pm 21:35 Cloudy with Light Rain 66 19 65 18.3 96 96 ENE 9 15 29.93 1013 4 6 0.03 0.76
9:55 pm 21:55 Cloudy with Thunderstorms 66 18.7 64 18 96 96 ENE 14 22 29.94 1014 5 8 0.03 0.76
10:15 pm 22:15 Cloudy with Light Rain 65 18.6 64 18 96 96 ENE 10 17 29.95 1014 4 6 0.00 0.00
10:35 pm 22:35 Cloudy with Thunderstorms 65 18.4 64 17.9 97 97 NE 13 20 29.97 1015 3 5 0.00 0.00
10:55 pm 22:55 Cloudy with Mist and Fog 64 18 64 17.5 97 97 ENE 12 19 29.98 1015 5 8 0.00 0.00
11:15 pm 23:15 Cloudy with Mist and Fog 64 18 64 17.5 97 97 NE 12 19 29.96 1015 4 6 0.00 0.00
11:35 pm 23:35 Cloudy with Light Rain 64 18 63 17.3 96 96 NNE 7 11 29.98 1015 4 6 0.00 0.00
11:55 pm 23:55 Cloudy with Light Rain 64 18 64 17.5 97 97 E 9 15 29.96 1015 3 5 0.02 0.51

Powered by AerisWeather